TimeEST,TemperatureF,Dew PointF,Humidity,Sea Level PressureIn,VisibilityMPH,Wind Direction,Wind SpeedMPH,Gust SpeedMPH,PrecipitationIn,Events,Conditions,WindDirDegrees,DateUTC
12:53 AM,25.0,14.0,63,30.27,10.0,NW,8.1,-,0.00,,Overcast,310,2013-11-28 05:53:00
1:53 AM,24.1,14.0,65,30.29,10.0,North,4.6,-,N/A,,Overcast,10,2013-11-28 06:53:00
2:53 AM,23.0,14.0,68,30.31,10.0,Calm,Calm,-,N/A,,Mostly Cloudy,0,2013-11-28 07:53:00
3:53 AM,19.9,12.9,74,30.32,10.0,Calm,Calm,-,N/A,,Partly Cloudy,0,2013-11-28 08:53:00
4:53 AM,19.0,12.0,74,30.34,10.0,Calm,Calm,-,N/A,,Clear,0,2013-11-28 09:53:00
5:53 AM,17.1,12.0,81,30.37,10.0,Calm,Calm,-,N/A,,Clear,0,2013-11-28 10:53:00
6:53 AM,16.0,10.9,81,30.41,10.0,Calm,Calm,-,N/A,,Clear,0,2013-11-28 11:53:00
7:53 AM,18.0,12.9,81,30.43,10.0,Calm,Calm,-,N/A,,Clear,0,2013-11-28 12:53:00
8:53 AM,21.9,12.9,68,30.44,10.0,NNE,3.5,-,N/A,,Clear,20,2013-11-28 13:53:00
9:53 AM,25.0,15.1,66,30.44,10.0,ENE,4.6,-,N/A,,Clear,60,2013-11-28 14:53:00
10:53 AM,28.0,15.1,58,30.44,10.0,Calm,Calm,-,N/A,,Clear,0,2013-11-28 15:53:00
11:53 AM,30.0,15.1,54,30.42,10.0,Calm,Calm,-,N/A,,Clear,0,2013-11-28 16:53:00
12:53 PM,32.0,17.1,54,30.40,10.0,East,3.5,-,N/A,,Clear,90,2013-11-28 17:53:00
1:53 PM,34.0,18.0,52,30.39,10.0,WSW,3.5,-,N/A,,Clear,240,2013-11-28 18:53:00
2:53 PM,36.0,18.0,48,30.37,10.0,Calm,Calm,-,N/A,,Clear,0,2013-11-28 19:53:00
3:53 PM,37.0,17.1,44,30.38,10.0,West,3.5,-,N/A,,Clear,270,2013-11-28 20:53:00
4:53 PM,36.0,17.1,46,30.38,10.0,Calm,Calm,-,N/A,,Partly Cloudy,0,2013-11-28 21:53:00
5:53 PM,32.0,19.9,61,30.41,10.0,Calm,Calm,-,N/A,,Partly Cloudy,0,2013-11-28 22:53:00
6:53 PM,28.9,19.9,69,30.43,10.0,Calm,Calm,-,N/A,,Clear,0,2013-11-28 23:53:00
7:53 PM,27.0,19.9,75,30.43,10.0,Calm,Calm,-,N/A,,Clear,0,2013-11-29 00:53:00
8:53 PM,25.0,19.9,81,30.44,10.0,Calm,Calm,-,N/A,,Clear,0,2013-11-29 01:53:00
9:53 PM,24.1,19.0,81,30.45,10.0,North,3.5,-,N/A,,Clear,350,2013-11-29 02:53:00
10:53 PM,23.0,19.0,85,30.47,10.0,Calm,Calm,-,N/A,,Clear,0,2013-11-29 03:53:00
11:53 PM,23.0,18.0,81,30.49,10.0,Calm,Calm,-,N/A,,Clear,0,2013-11-29 04:53:00